Weather History for K4M9 - January, 2013

Change the Weather History Date:

Monday, January 7, 2013

  Actual Average (KARG) Record (KARG)
Temperature  
Mean Temperature 35 °F -  
Max Temperature 44 °F 43 °F 68 °F (2008)
Min Temperature 26 °F 29 °F 12 °F (2015)
Degree Days  
Heating Degree Days 30    
Moisture  
Dew Point 27 °F    
Average Humidity 80    
Maximum Humidity 100    
Minimum Humidity 49    
Precipitation  
Precipitation 0.00 in - - ()
Sea Level Pressure  
Sea Level Pressure 30.36 in    
Wind  
Wind Speed 4 mph (East)    
Max Wind Speed 12 mph    
Max Gust Speed -    
Visibility 8 miles    
Events      
Averages and records for this station are not official NWS values.
T = Trace of Precipitation, MM = Missing Value Source: NWS Daily Summary

Daily Weather History Graph

Daily Weather History Graph

Search for Another Location

Airport or City:

Trip Planner

Search our weather history database for the weather conditions in past years. The results will help you decide how hot, cold, wet, or windy it might be!

Date:

Astronomy

Jan. 07, 2013 Rise Set
Actual Time 7:14 AM CST 5:03 PM CST
Civil Twilight 6:46 AM CST 5:32 PM CST
Nautical Twilight 6:14 AM CST 6:04 PM CST
Astronomical Twilight 5:43 AM CST 6:35 PM CST
Moon 2:40 AM CST (1/7) 1:13 PM CST (1/7)
Length of Visible Light 10h 45m
Length of Day
9h 48m
Waning Crescent, 22% of the Moon is Illuminated
Jan 7
Waning Crescent
Jan 11
New
Jan 18
First Quarter
Jan 26
Full
Feb 3
Last Quarter

Hourly Weather History & Observations

Time (CST) Temp. Windchill Dew Point Humidity Pressure Visibility Wind Dir Wind Speed Gust Speed Precip Events Conditions
12:15 AM 28.4 °F 24.6 °F 24.8 °F 86% 30.41 in 10.0 mi NNE 3.5 mph - N/A   Clear
12:35 AM 28.4 °F 24.6 °F 24.8 °F 86% 30.41 in 10.0 mi NNE 3.5 mph - N/A   Clear
12:55 AM 28.4 °F - 26.6 °F 93% 30.41 in 10.0 mi Calm Calm - N/A   Clear
1:15 AM 28.4 °F 24.6 °F 26.6 °F 93% 30.42 in 10.0 mi ENE 3.5 mph - N/A   Clear
1:35 AM 28.4 °F - 26.6 °F 93% 30.42 in 10.0 mi Calm Calm - N/A   Clear
1:55 AM 28.4 °F 24.6 °F 26.6 °F 93% 30.42 in 10.0 mi NNE 3.5 mph - N/A   Clear
2:15 AM 26.6 °F 22.6 °F 24.8 °F 93% 30.42 in 9.0 mi North 3.5 mph - N/A   Clear
2:35 AM 26.6 °F 22.6 °F 26.6 °F 100% 30.43 in 10.0 mi NNE 3.5 mph - N/A   Clear
2:55 AM 28.4 °F 23.3 °F 26.6 °F 93% 30.42 in 10.0 mi NE 4.6 mph - N/A   Clear
3:15 AM 28.4 °F 23.3 °F 26.6 °F 93% 30.42 in 10.0 mi NNE 4.6 mph - N/A   Clear
3:35 AM 28.4 °F 23.3 °F 24.8 °F 86% 30.42 in 10.0 mi NNE 4.6 mph - N/A   Clear
3:55 AM 26.6 °F 21.2 °F 24.8 °F 93% 30.42 in 10.0 mi NNE 4.6 mph - N/A   Clear
4:15 AM 26.6 °F 21.2 °F 24.8 °F 93% 30.41 in 10.0 mi NE 4.6 mph - N/A   Clear
4:35 AM 26.6 °F 20.0 °F 24.8 °F 93% 30.41 in 10.0 mi NNE 5.8 mph - N/A   Clear
4:55 AM 26.6 °F 21.2 °F 24.8 °F 93% 30.41 in 10.0 mi NE 4.6 mph - N/A   Clear
5:15 AM 26.6 °F 20.0 °F 24.8 °F 93% 30.41 in 9.0 mi ENE 5.8 mph - N/A   Clear
5:35 AM 26.6 °F 20.0 °F 24.8 °F 93% 30.41 in 6.0 mi ENE 5.8 mph - N/A   Clear
5:55 AM 26.6 °F 20.0 °F 24.8 °F 93% 30.42 in 5.0 mi ENE 5.8 mph - N/A   Clear
6:15 AM 26.6 °F 22.6 °F 26.6 °F 100% 30.43 in 5.0 mi East 3.5 mph - N/A   Clear
6:35 AM 26.6 °F - 24.8 °F 93% 30.44 in 5.0 mi Calm Calm - N/A   Clear
6:55 AM 26.6 °F 20.0 °F 26.6 °F 100% 30.44 in 4.0 mi NE 5.8 mph - N/A   Clear
7:15 AM 26.6 °F 21.2 °F 24.8 °F 93% 30.44 in 3.0 mi East 4.6 mph - N/A   Clear
7:35 AM 26.6 °F - 24.8 °F 93% 30.45 in 3.0 mi Calm Calm - N/A   Clear
8:15 AM 28.4 °F - 26.6 °F 93% 30.46 in 4.0 mi Calm Calm - N/A   Clear
8:35 AM 30.2 °F 26.7 °F 26.6 °F 86% 30.46 in 4.0 mi East 3.5 mph - N/A   Clear
8:55 AM 32.0 °F 27.5 °F 28.4 °F 87% 30.46 in 5.0 mi ESE 4.6 mph - N/A   Clear
9:15 AM 32.0 °F 27.5 °F 28.4 °F 87% 30.46 in 5.0 mi ESE 4.6 mph - N/A   Clear
9:35 AM 32.0 °F 24.2 °F 28.4 °F 87% 30.45 in 7.0 mi ESE 9.2 mph - N/A   Clear
9:55 AM 33.8 °F 25.3 °F 28.4 °F 81% 30.45 in 7.0 mi ESE 11.5 mph - N/A   Clear
10:15 AM 35.6 °F 27.5 °F 28.4 °F 75% 30.45 in 7.0 mi ESE 11.5 mph - N/A   Clear
10:35 AM 35.6 °F 27.5 °F 28.4 °F 75% 30.44 in 7.0 mi ESE 11.5 mph - N/A   Clear
10:55 AM 37.4 °F 29.8 °F 26.6 °F 65% 30.42 in 9.0 mi ESE 11.5 mph - N/A   Clear
11:15 AM 37.4 °F 32.1 °F 26.6 °F 65% 30.41 in 10.0 mi ESE 6.9 mph - N/A   Clear
11:35 AM 37.4 °F 32.8 °F 26.6 °F 65% 30.40 in 10.0 mi SE 5.8 mph - N/A   Clear
11:55 AM 37.4 °F - 26.6 °F 65% 30.39 in 10.0 mi Calm Calm - N/A   Clear
12:15 PM 39.2 °F 35.9 °F 26.6 °F 61% 30.37 in 9.0 mi SSE 4.6 mph - N/A   Clear
12:55 PM 41.0 °F 38.0 °F 26.6 °F 57% 30.35 in 10.0 mi SSE 4.6 mph - N/A   Clear
1:15 PM 41.0 °F 38.0 °F 28.4 °F 61% 30.34 in 9.0 mi SE 4.6 mph - N/A   Clear
1:35 PM 41.0 °F 37.1 °F 28.4 °F 61% 30.33 in 10.0 mi ESE 5.8 mph - N/A   Clear
1:55 PM 42.8 °F 38.0 °F 28.4 °F 57% 30.31 in 10.0 mi ESE 8.1 mph - N/A   Clear
2:15 PM 42.8 °F 37.5 °F 28.4 °F 57% 30.28 in 10.0 mi ESE 9.2 mph - N/A   Clear
2:35 PM 42.8 °F 38.0 °F 28.4 °F 57% 30.28 in 10.0 mi ESE 8.1 mph - N/A   Clear
2:55 PM 42.8 °F 39.3 °F 26.6 °F 53% 30.28 in 10.0 mi ESE 5.8 mph - N/A   Clear
3:15 PM 44.6 °F 42.2 °F 28.4 °F 53% 30.30 in 10.0 mi SSW 4.6 mph - N/A   Clear
3:35 PM 44.6 °F - 26.6 °F 49% 30.30 in 8.0 mi Calm Calm - N/A   Clear
3:55 PM 44.6 °F 42.2 °F 28.4 °F 53% 30.29 in 8.0 mi South 4.6 mph - N/A   Clear
4:15 PM 44.6 °F - 26.6 °F 49% 30.28 in 10.0 mi Calm Calm - N/A   Clear
4:35 PM 41.0 °F - 28.4 °F 61% 30.28 in 10.0 mi Calm Calm - N/A   Clear
4:55 PM 41.0 °F - 28.4 °F 61% 30.27 in 10.0 mi Calm Calm - N/A   Clear
5:15 PM 39.2 °F - 28.4 °F 65% 30.27 in 10.0 mi Calm Calm - N/A   Clear
5:35 PM 37.4 °F 33.8 °F 30.2 °F 75% 30.26 in 5.0 mi East 4.6 mph - N/A   Haze
5:55 PM 35.6 °F 30.7 °F 30.2 °F 81% 30.26 in 10.0 mi East 5.8 mph - N/A   Clear
6:35 PM 35.6 °F - 28.4 °F 75% 30.28 in 10.0 mi Calm Calm - N/A   Clear
6:55 PM 33.8 °F - 28.4 °F 81% 30.27 in 10.0 mi Calm Calm - N/A   Clear
7:15 PM 35.6 °F - 28.4 °F 75% 30.27 in 10.0 mi Calm Calm - N/A   Clear
8:15 PM 33.8 °F 30.8 °F 28.4 °F 81% 30.25 in 10.0 mi SE 3.5 mph - N/A   Clear
8:35 PM 32.0 °F - 28.4 °F 87% 30.26 in 10.0 mi Calm Calm - N/A   Clear
8:55 PM 32.0 °F 28.7 °F 28.4 °F 87% 30.26 in 7.0 mi South 3.5 mph - N/A   Clear
9:15 PM 32.0 °F 28.7 °F 30.2 °F 93% 30.25 in 10.0 mi SSE 3.5 mph - N/A   Clear
9:35 PM 32.0 °F 28.7 °F 28.4 °F 87% 30.24 in 9.0 mi SE 3.5 mph - N/A   Clear
10:15 PM 30.2 °F - 28.4 °F 93% 30.25 in 5.0 mi Calm Calm - N/A   Clear
10:35 PM 32.0 °F - 28.4 °F 87% 30.25 in 6.0 mi Calm Calm - N/A   Clear
11:15 PM 30.2 °F 25.4 °F 28.4 °F 93% 30.24 in 5.0 mi NNW 4.6 mph - N/A   Clear
11:35 PM 30.2 °F 26.7 °F 28.4 °F 93% 30.23 in 6.0 mi NNW 3.5 mph - N/A   Clear
11:55 PM 30.2 °F 26.7 °F 28.4 °F 93% 30.23 in 7.0 mi NNE 3.5 mph - N/A   Clear